MSG 4 DEB (COOLER COVER), 40989

Orbit data source: Space-Track

MSG 4 DEB (COOLER COVER), 40989 is space debris in GEO originally from a launch on Wed, 15 Jul 2015 UTC launched from the French Guiana (FRGUI). Debris objects in space refer to the collection of defunct objects orbiting the Earth. Examples of debris include non-operational satellites, rocket bodies, and fragments generated from explosions, collisions, or faulty payload assembly.

Loading next visibility...
Identifier
40989, 2015-034E
Orbit
GEO
Country
Flag of UnknownUnknown / EUME
Related business
Manufacturer
SENER
Mission
Spacecraft
Bus & Motor
MSG COVER, Unknown motor
Mass
~0 kg wet, ~4 kg dry
Launch date (UTC)
2015-07-15 (10 years ago)
Launch vehicle
Unknown
Launch site
French Guiana (FRGUI)
Object type
Payload
Rocket body
Debris
Shape & HBR
Cyl, 0.8 m
Radar Cross Section
1.065 m²

Expand to show TLE details & history
Last TLE update: 1 day ago

TLE from 1 day ago
0 MSG 4 DEB (COOLER COVER)
1 40989U 15034E   25258.44251792 -.00000191  00000-0  00000-0 0  9991
2 40989   6.4112  83.3997 0024573 277.3003  38.2555  1.01540988 37541
Epoch: 2025-09-15T10:37Z
TLE epoch observation values (Epoch: 2025-09-15T10:37:13.548Z)
Latitude
-4.48979°
Longitude
-114.65356°
Altitude
35,353.907 km
Speed
3.094 km/s
True Right ascension
02h 37m 12s
True Declination
-4° 29' 07"
Sunlit
Object was in daylight at epoch
Visualization orbit readout
Latitude
Unknown
Longitude
Unknown
Altitude
Unknown
Speed
Unknown
Apparent Right ascension
Unknown
Apparent Declination
Unknown
Sunlit
N/A
Visualization observer readout
Local Sidereal Time
14:42:41
Azimuth
Unknown
Elevation
Unknown
Doppler factor
Unknown
Orbital elements
Apogee altitude
35,538.311 km
Perigee altitude
35,332.813 km
Semi-major axis
41,813.699 km
Eccentricity
0.00246
Inclination
6.4112°
RAAN
83.3997°
Arg. of periapsis
277.3003°
True anomaly
38.43027°
Mean anomaly
38.2555°
Eccentric anomaly
38.34284°
Mean motion
0.25384 °/min
Orbital period
1,418.2 mins
BSTAR
0
Loading maneuver chart data...
Computing Atmospheric mass density...
Loading historical data...
Loading historical data...
Loading historical data...
Loading historical data...
Loading historical data...
Loading historical data...
Loading historical data...

Documentation

Showing up to 5 results
|